Wind_Speed
50 47 42 41 40 38 36 33 31 31 28 28 31 36 38 37 37 40 39 41 44 46 47 51 56 61 66 69 72 75 76 75 71 70 75 87 108 127 130 129 127 128 125 118
54 51 48 47 45 44 42 39 38 36 35 36 38 40 42 43 43 46 48 48 49 48 49 50 51 52 55 60 61 61 62 61 63 68 76 80 83 85 95 118 137 128 134 126
59 57 55 54 52 49 47 45 45 43 42 43 44 43 44 49 50 50 51 54 53 55 54 51 51 53 56 58 57 59 60 58 59 62 70 75 79 84 88 92 94 105 116 126
64 62 60 58 57 54 54 53 52 51 49 50 48 47 48 53 57 57 55 57 60 59 58 57 56 59 60 63 64 63 62 58 62 63 65 69 73 78 86 93 92 100 90 98
70 67 65 64 62 62 60 60 59 57 55 55 53 53 54 57 58 59 61 62 62 60 61 66 65 62 63 64 68 71 70 66 67 63 68 73 74 72 82 86 92 102 98 97
74 72 70 67 65 65 64 63 61 59 57 59 59 60 60 61 62 62 64 64 65 66 71 65 66 69 69 67 68 72 74 76 77 64 73 75 67 67 79 84 90 98 102 100
75 74 72 71 68 68 67 66 65 63 64 63 65 65 64 65 64 63 66 68 68 74 70 69 70 69 67 68 70 74 76 81 84 75 77 74 62 68 77 86 90 99 97 94
79 77 74 73 72 72 69 70 70 67 67 68 69 71 71 71 72 70 71 74 72 72 71 71 70 69 68 70 73 79 83 85 85 82 79 73 58 68 83 88 85 88 93 95
83 80 77 75 76 75 74 74 72 69 68 70 75 75 75 74 73 73 74 77 77 75 75 75 72 72 73 74 77 83 88 88 87 82 82 74 57 68 73 83 78 81 92 89
88 85 82 80 78 77 77 77 75 73 70 74 75 76 77 76 75 75 76 77 79 78 77 78 78 77 80 77 79 84 89 90 85 83 85 66 59 65 73 80 84 85 86 89
92 90 87 85 82 78 77 79 77 76 74 75 77 79 80 78 78 76 77 76 78 78 80 81 84 80 83 81 80 80 81 84 82 86 82 62 66 69 76 81 84 87 81 84
85 86 87 86 85 82 79 82 81 77 76 77 79 82 84 83 80 79 78 77 82 84 84 84 83 82 83 81 74 77 73 78 79 80 73 67 66 79 78 74 73 79 82 74
82 81 83 83 83 81 78 83 80 79 75 77 79 87 84 83 79 77 79 83 84 84 87 85 83 81 80 74 69 69 66 72 74 79 62 71 75 70 69 72 68 72 74 71
79 80 81 82 83 81 79 82 81 78 78 76 79 82 82 77 77 77 78 82 80 81 84 82 79 77 75 69 64 59 67 68 73 68 61 75 63 68 67 69 65 66 69 69
79 79 80 81 82 80 77 77 77 74 70 68 72 75 76 75 76 76 74 75 75 77 76 75 73 71 70 64 58 54 71 66 64 58 63 63 57 63 65 63 60 63 64 60
79 78 76 77 77 73 69 70 69 66 63 60 62 69 67 68 71 71 70 70 70 71 67 65 64 66 65 54 49 61 55 62 59 53 51 46 50 50 60 58 56 54 55 53
74 73 72 71 68 65 62 64 66 65 63 57 56 57 67 67 64 64 66 65 64 62 59 58 57 57 58 52 53 56 56 55 53 52 44 45 48 44 49 51 50 46 42 46
69 69 68 66 64 60 60 65 65 64 60 54 49 48 61 64 60 60 61 60 59 56 54 53 55 57 57 55 53 49 48 47 45 47 43 38 39 41 40 49 47 41 39 41
65 64 62 61 58 56 60 56 58 58 53 47 46 52 55 55 55 55 56 56 53 53 51 51 54 56 55 50 48 45 46 42 38 36 35 35 33 37 42 41 43 36 35 32
64 62 57 55 56 57 55 54 55 51 44 42 47 50 50 49 50 51 50 49 49 47 48 50 56 58 47 46 44 45 43 37 31 33 36 31 29 31 33 34 36 32 29 28
61 56 54 55 56 54 55 52 45 41 40 43 48 47 46 47 46 46 45 44 44 46 46 49 55 52 47 43 40 40 37 35 34 34 33 31 28 26 24 25 25 25 24 23
55 56 57 57 56 56 53 43 38 38 41 44 48 47 45 43 43 41 41 40 42 43 48 49 52 46 42 41 38 34 33 32 34 31 30 27 25 24 23 23 22 21 19 18
55 55 56 55 55 51 36 33 36 41 44 50 51 43 40 38 38 39 39 39 40 42 47 46 42 37 39 38 35 31 29 26 31 27 24 23 21 22 20 19 17 14 13 14
51 51 52 52 47 35 33 37 44 44 47 48 41 37 37 38 36 36 38 39 40 41 45 43 39 35 34 34 31 28 23 23 26 23 20 19 19 18 18 17 16 13 11 14
47 47 45 42 37 34 35 39 46 46 45 41 39 38 36 35 33 34 37 37 39 41 40 42 42 37 34 32 28 24 21 22 22 21 19 19 19 19 19 16 14 15 16 19
40 39 40 38 36 36 40 45 47 44 43 40 36 34 33 32 31 34 36 36 37 36 37 37 35 35 34 30 27 24 21 21 21 20 20 21 21 20 19 19 18 17 17 20
36 39 38 38 38 41 44 45 44 42 39 37 33 31 30 30 32 35 34 34 34 34 33 33 33 34 32 27 24 23 21 22 22 22 24 25 24 21 22 22 24 21 20 24
Wind_Direction
226 225 226 229 231 232 234 236 237 240 242 241 243 246 249 251 252 253 249 246 247 249 250 250 253 256 257 257 256 256 257 255 254 255 256 256 254 253 250 249 252 255 257 259
229 230 230 232 235 237 240 241 241 244 247 249 249 250 253 257 253 255 255 254 252 252 253 254 255 257 260 258 259 260 259 259 258 259 258 257 257 256 256 255 251 254 256 257
230 232 234 236 238 238 240 243 246 245 247 251 255 257 258 257 259 257 257 260 259 260 262 261 266 267 266 267 266 262 258 257 255 254 255 258 259 260 259 257 257 256 258 257
233 234 236 238 242 243 246 247 247 249 250 253 255 259 261 258 258 261 259 259 260 262 265 269 268 269 276 278 278 275 270 265 261 255 254 254 255 259 263 263 262 262 260 260
234 236 239 240 242 244 247 249 251 253 254 256 257 257 256 257 260 263 262 260 263 267 268 265 271 275 274 276 279 280 277 271 266 265 262 254 253 256 259 262 265 266 261 258
236 237 239 242 244 245 246 250 252 254 255 256 258 258 260 260 259 259 262 264 268 269 266 271 272 275 276 276 277 281 282 279 275 268 270 262 259 259 258 257 257 258 260 264
238 240 242 245 246 247 249 251 252 254 256 257 259 259 258 258 260 260 261 264 267 266 271 271 272 274 276 279 280 279 281 279 275 273 271 265 262 258 261 259 256 258 261 263
238 240 242 244 246 247 248 250 252 253 256 258 258 259 260 260 261 263 265 265 265 267 270 272 272 274 277 278 280 281 282 282 280 278 273 268 272 271 260 260 260 263 261 259
240 241 243 244 246 249 251 252 253 253 256 258 259 259 259 261 262 262 261 264 267 268 271 272 274 276 277 278 280 282 282 282 281 279 275 274 276 269 265 267 266 259 261 261
243 244 245 246 248 250 252 254 254 255 254 257 261 262 264 262 262 263 265 266 268 270 271 273 275 276 277 279 281 282 282 282 282 278 275 274 274 269 266 265 263 257 258 258
243 245 247 248 249 250 252 254 254 254 255 258 259 262 263 265 264 266 269 270 270 272 273 274 275 278 280 281 282 281 279 279 279 277 278 280 267 266 262 258 260 266 262 264
243 244 245 247 248 249 251 254 254 255 254 256 260 260 260 262 264 265 268 269 270 271 273 275 277 278 280 282 282 280 278 277 275 276 275 277 269 263 265 265 263 263 266 263
241 243 244 245 247 249 249 252 254 255 255 256 259 260 261 261 263 264 264 265 268 271 273 277 279 281 281 280 278 276 279 278 275 273 276 272 266 270 268 268 267 265 266 262
240 242 244 245 246 247 249 252 255 255 255 254 256 259 261 262 261 262 264 267 270 272 274 276 279 279 279 280 280 282 283 274 275 276 275 271 277 273 270 269 267 265 264 264
240 243 244 245 247 249 250 253 255 254 253 250 253 258 259 260 263 264 265 268 270 271 275 277 278 280 279 279 282 282 274 274 279 283 280 284 282 279 278 274 273 270 266 266
241 244 246 246 248 250 251 252 252 252 250 249 250 258 260 261 262 264 266 267 270 272 273 276 278 278 280 281 284 278 283 286 282 280 271 269 270 266 267 269 272 272 273 271
243 244 245 245 246 247 246 247 249 249 251 249 251 256 262 261 263 265 267 270 271 273 275 276 278 282 284 288 285 286 285 286 283 280 281 282 277 268 269 272 268 266 264 262
241 242 242 243 244 245 245 246 249 249 250 249 249 251 258 261 264 265 267 270 272 275 277 280 282 285 288 287 287 288 283 281 281 282 282 278 273 268 263 266 266 263 260 260
238 239 239 239 239 240 241 242 246 248 248 249 249 250 256 257 259 261 264 267 271 274 277 282 283 283 283 287 288 285 283 286 287 287 280 275 268 268 265 266 267 266 263 262
234 236 235 236 235 236 238 241 243 247 249 248 248 249 250 253 255 259 262 264 268 275 279 286 288 287 291 289 289 286 285 287 288 291 288 282 272 267 267 268 267 262 261 257
233 233 231 233 233 235 237 238 241 245 244 245 249 251 250 251 254 256 259 265 272 279 285 288 288 290 292 288 284 283 288 295 294 291 285 282 281 282 278 273 271 266 261 252
228 228 228 229 231 233 236 237 241 244 244 247 248 246 245 247 250 254 260 269 278 284 287 288 286 290 289 285 285 284 290 296 289 283 282 279 280 279 277 276 272 266 264 262
224 225 227 228 232 234 235 237 238 237 238 240 242 243 244 246 248 254 263 272 280 283 286 286 287 290 285 285 284 286 288 286 281 280 273 274 278 274 274 275 270 262 262 257
221 223 225 228 232 232 229 230 233 234 237 240 243 242 239 241 248 258 268 277 283 287 286 288 293 290 283 281 281 279 279 273 272 270 265 266 264 262 264 267 264 261 255 245
219 221 225 228 228 225 222 224 230 231 235 236 234 235 236 244 253 264 271 277 283 283 285 284 284 283 278 279 274 270 265 262 261 256 255 257 252 250 258 261 248 237 232 225
218 220 221 220 217 215 214 221 226 227 230 232 232 233 240 251 260 268 273 278 283 281 275 274 276 273 274 274 270 261 255 254 255 253 250 251 249 246 245 247 244 242 233 234
211 213 211 209 207 209 213 218 223 225 227 229 234 240 249 256 266 272 280 288 285 283 282 277 272 269 272 277 272 257 251 248 247 241 238 246 248 246 241 243 248 249 241 235
Height
10383 10389 10394 10398 10403 10408 10411 10418 10423 10425 10430 10435 10435 10433 10434 10441 10445 10447 10452 10455 10455 10459 10461 10462 10464 10466 10470 10473 10477 10483 10486 10491 10496 10494 10486 10481 10481 10482 10491 10494 10500 10500 10512 10539
10372 10379 10385 10388 10393 10399 10404 10409 10413 10418 10422 10424 10425 10428 10428 10430 10435 10436 10438 10441 10444 10447 10449 10451 10454 10457 10456 10456 10460 10465 10469 10475 10475 10472 10466 10462 10460 10463 10461 10460 10467 10484 10475 10507
10359 10366 10373 10377 10382 10389 10394 10398 10402 10408 10411 10413 10416 10420 10423 10418 10420 10424 10425 10426 10431 10431 10435 10441 10442 10441 10439 10439 10443 10446 10450 10457 10458 10457 10448 10443 10443 10439 10437 10434 10438 10440 10451 10463
10346 10353 10360 10366 10371 10377 10382 10385 10389 10394 10401 10403 10407 10410 10411 10409 10404 10407 10414 10415 10414 10419 10422 10425 10426 10422 10422 10421 10421 10424 10428 10436 10432 10434 10433 10430 10430 10427 10416 10413 10422 10407 10434 10420
10330 10339 10347 10352 10358 10363 10368 10371 10375 10382 10388 10391 10394 10397 10395 10393 10394 10396 10395 10399 10402 10407 10411 10405 10409 10414 10413 10410 10401 10396 10402 10411 10408 10416 10407 10408 10415 10419 10406 10402 10395 10375 10390 10393
10315 10324 10332 10338 10345 10350 10352 10355 10362 10369 10374 10375 10378 10379 10382 10382 10381 10384 10381 10385 10387 10390 10384 10397 10398 10393 10393 10397 10394 10384 10381 10378 10376 10399 10380 10383 10408 10408 10383 10374 10372 10353 10350 10364
10299 10308 10317 10323 10329 10334 10339 10342 10347 10355 10357 10361 10362 10361 10364 10363 10366 10370 10369 10370 10374 10364 10374 10379 10380 10382 10381 10377 10373 10365 10360 10350 10345 10363 10359 10366 10384 10374 10358 10342 10341 10330 10343 10355
10282 10292 10301 10307 10312 10317 10323 10328 10333 10339 10342 10344 10343 10342 10346 10348 10350 10356 10355 10349 10354 10355 10358 10360 10362 10363 10364 10360 10354 10342 10335 10329 10324 10326 10332 10342 10366 10346 10322 10317 10330 10323 10318 10318
10264 10274 10282 10290 10295 10300 10305 10310 10317 10324 10329 10326 10322 10325 10326 10331 10336 10337 10335 10331 10336 10339 10340 10340 10345 10343 10341 10340 10337 10325 10311 10304 10300 10306 10300 10314 10339 10311 10313 10294 10301 10302 10285 10296
10246 10254 10263 10271 10277 10283 10287 10292 10299 10308 10315 10305 10307 10308 10308 10312 10315 10316 10317 10318 10317 10319 10320 10319 10318 10321 10316 10322 10319 10307 10290 10280 10279 10277 10267 10301 10307 10287 10282 10270 10265 10263 10264 10264
10226 10234 10243 10250 10257 10266 10270 10271 10280 10287 10296 10294 10292 10288 10287 10293 10294 10299 10298 10301 10297 10298 10296 10295 10293 10300 10294 10297 10295 10285 10274 10261 10257 10245 10250 10279 10267 10259 10248 10241 10240 10238 10253 10249
10207 10214 10222 10230 10236 10246 10255 10250 10258 10270 10279 10278 10275 10268 10266 10272 10280 10282 10284 10284 10274 10272 10274 10274 10277 10276 10274 10272 10274 10258 10257 10240 10234 10228 10237 10244 10242 10218 10221 10228 10231 10226 10222 10239
10188 10194 10202 10209 10217 10227 10238 10231 10241 10250 10259 10264 10257 10242 10251 10253 10263 10266 10265 10257 10257 10258 10250 10253 10253 10253 10249 10250 10251 10242 10239 10219 10214 10200 10229 10210 10201 10209 10211 10208 10210 10208 10205 10212
10170 10177 10183 10189 10197 10208 10218 10216 10222 10231 10237 10247 10236 10229 10227 10240 10242 10245 10246 10240 10242 10240 10233 10233 10235 10230 10225 10227 10226 10228 10208 10201 10190 10196 10205 10180 10199 10191 10191 10188 10189 10188 10187 10188
10152 10158 10164 10170 10177 10188 10198 10200 10201 10208 10216 10224 10222 10215 10215 10221 10222 10224 10227 10226 10225 10220 10219 10217 10213 10210 10203 10210 10213 10208 10177 10181 10180 10189 10179 10174 10183 10173 10168 10169 10173 10165 10164 10174
10134 10140 10147 10152 10160 10171 10181 10182 10181 10187 10196 10206 10209 10198 10201 10203 10202 10205 10209 10207 10207 10202 10202 10202 10199 10192 10188 10197 10194 10174 10174 10166 10161 10164 10157 10156 10154 10155 10145 10146 10149 10150 10152 10158
10117 10123 10129 10136 10145 10156 10164 10162 10162 10167 10173 10186 10192 10192 10180 10182 10187 10190 10188 10188 10189 10188 10187 10186 10183 10177 10170 10174 10170 10165 10156 10152 10148 10140 10144 10142 10137 10140 10131 10133 10133 10135 10138 10139
10099 10105 10112 10121 10131 10141 10147 10141 10145 10150 10157 10168 10178 10181 10167 10167 10173 10173 10173 10172 10171 10172 10172 10172 10166 10160 10155 10155 10152 10151 10143 10134 10131 10126 10130 10130 10124 10120 10122 10116 10119 10124 10125 10125
10082 10089 10097 10107 10117 10124 10120 10129 10131 10135 10145 10156 10162 10160 10157 10158 10159 10160 10160 10160 10160 10159 10159 10156 10151 10144 10142 10143 10138 10133 10125 10123 10120 10117 10116 10115 10113 10111 10110 10113 10111 10115 10113 10118
10066 10075 10087 10095 10101 10104 10109 10115 10118 10126 10138 10144 10142 10142 10146 10148 10148 10149 10150 10150 10149 10148 10147 10143 10133 10125 10133 10128 10123 10118 10113 10113 10109 10106 10103 10104 10103 10102 10101 10102 10103 10104 10106 10108
10055 10065 10075 10079 10084 10091 10095 10103 10113 10122 10127 10128 10126 10131 10133 10135 10138 10138 10139 10139 10138 10136 10134 10131 10120 10117 10118 10115 10112 10108 10105 10103 10101 10099 10098 10096 10094 10094 10095 10095 10096 10097 10100 10102
10044 10052 10057 10063 10070 10076 10084 10098 10109 10112 10113 10114 10112 10116 10122 10125 10127 10129 10129 10129 10128 10127 10123 10118 10110 10111 10108 10102 10100 10099 10097 10095 10092 10090 10088 10087 10087 10088 10089 10090 10093 10095 10097 10099
10030 10038 10046 10052 10058 10067 10083 10095 10097 10096 10095 10093 10095 10108 10115 10118 10119 10119 10120 10121 10120 10117 10111 10105 10102 10101 10096 10093 10091 10090 10090 10089 10085 10085 10084 10083 10084 10084 10086 10088 10090 10091 10094 10097
10021 10029 10037 10042 10054 10068 10077 10079 10077 10082 10082 10084 10094 10102 10105 10106 10109 10111 10110 10111 10108 10105 10098 10095 10092 10089 10085 10084 10083 10083 10083 10082 10080 10080 10079 10079 10080 10081 10082 10084 10086 10089 10092 10094
10014 10022 10031 10041 10050 10058 10064 10067 10066 10069 10073 10080 10086 10091 10096 10098 10102 10102 10102 10100 10098 10093 10090 10087 10083 10080 10076 10075 10075 10076 10076 10075 10075 10074 10075 10076 10077 10078 10080 10083 10084 10086 10088 10091
10009 10018 10027 10033 10041 10047 10051 10052 10055 10062 10067 10073 10080 10084 10089 10091 10094 10093 10091 10090 10087 10084 10079 10076 10073 10069 10067 10067 10068 10069 10070 10070 10070 10071 10071 10073 10074 10076 10079 10079 10081 10083 10085 10088
10005 10010 10017 10024 10030 10036 10039 10044 10050 10057 10064 10069 10074 10078 10081 10084 10083 10081 10080 10079 10074 10071 10067 10065 10062 10060 10059 10060 10061 10063 10064 10064 10064 10065 10067 10068 10070 10074 10076 10077 10077 10080 10082 10083